Content
SEND FEEDBACK

Daily
Averages
Monthly
Summary
United States of America

NEW YORK - CENTRAL PARK, NEW YORK


Home > North America > United States > New York
Elevation: 14 feet     Latitude: 40 47N     Longitude: 073 58W

WEATHER
 
SELECT A DAY
Number of Records: 151,321;   Date Range: 11/1/95 - 10/24/14
 
SHARE

PRINT THIS DATA

[ ← Previous Day ]
WEATHER ALMANAC - FEBRUARY 25, 2013
[ Next Day → ]
[ °C ]   °F
Weather ElementAverageHighLow
Temperature39 °F45 °F (11:51 am)32 °F (3:51 am)
Dewpoint23.9 °F26.1 °F (6:51 pm)21 °F (1:51 am)
Humidity55.1 %67 % (7:51 am)44 % (11:51 am)
Barometer30.13 in30.23 in (9:51 pm)30.01 in (1:51 am)
Wind Speed4.6 mph10.4 mph (11:51 am)
Weather ElementAverage
Visibility10 mi
Wind DirectionESE (114.3 °)

Weather ElementTotal
Precipitation---
Heating Degree Days26.5 (Base 65)
Averaged from 23 records on February 25, 2013
WEATHER CONDITIONS BREAKOUT
WIND DIRECTION BREAKOUT
WEATHER BY HOUR - FEBRUARY 25, 2013
[ °C ]   °F
Local TimeTemperatureDewpointHumidityBarometerVisibilityWind DirectionWind SpeedGust SpeedPrecipitationEventsConditions
1:51 AM33.1 °F21.0 °F61 %30.01 in10.0 miWNW (300°)6.9 mphClear
2:51 AM33.1 °F21.0 °F61 %30.01 in10.0 miCalmClear
3:51 AM32.0 °F21.9 °F66 %30.03 in10.0 miVariable4.6 mphClear
4:51 AM32.0 °F21.9 °F66 %30.04 in10.0 miNW (310°)5.8 mphClear
5:51 AM32.0 °F21.9 °F66 %30.06 in10.0 miWNW (290°)4.6 mphClear
6:51 AM33.1 °F23.0 °F66 %30.07 in10.0 miVariable3.5 mphClear
7:51 AM34.0 °F24.1 °F67 %30.11 in10.0 miWNW (290°)4.6 mphClear
8:51 AM36.0 °F25.0 °F64 %30.12 in10.0 miVariable3.5 mphClear
9:51 AM39.0 °F25.0 °F57 %30.13 in10.0 miVariable4.6 mphClear
10:51 AM43.0 °F25.0 °F49 %30.13 in10.0 miVariable4.6 mphClear
11:51 AM45.0 °F24.1 °F44 %30.13 in10.0 miNorth (350°)10.4 mphPartly Cloudy
12:51 PM43.0 °F23.0 °F45 %30.14 in10.0 miCalmOvercast
1:51 PM44.1 °F24.1 °F45 %30.13 in10.0 miNorth (360°)4.6 mphOvercast
2:51 PM43.0 °F23.0 °F45 %30.14 in10.0 miVariable5.8 mphOvercast
3:51 PM43.0 °F24.1 °F47 %30.15 in10.0 miVariable6.9 mphOvercast
4:51 PM43.0 °F24.1 °F47 %30.15 in10.0 miWNW (300°)5.8 mphOvercast
5:51 PM42.1 °F23.0 °F47 %30.17 in10.0 miVariable4.6 mphOvercast
6:51 PM42.1 °F26.1 °F53 %30.19 in10.0 miVariable4.6 mphOvercast
7:51 PM42.1 °F26.1 °F53 %30.21 in10.0 miWNW (300°)5.8 mphOvercast
8:51 PM42.1 °F26.1 °F53 %30.21 in10.0 miNNE (30°)3.5 mphOvercast
9:51 PM41.0 °F26.1 °F55 %30.23 in10.0 miCalmOvercast
10:51 PM41.0 °F24.1 °F51 %30.23 in10.0 miNNE (30°)4.6 mphOvercast
11:51 PM39.0 °F26.1 °F60 %30.22 in10.0 miENE (70°)6.9 mphPartly Cloudy
Hourly data recorded from KNYC, located miles away from New York - Central Park, New York







STORIES FROM OUR PARTNERS